CW2882 Weather Reports


time (UTC)temp
C
wind
direction
speed
KPH
gust
KPH
rain 1hr
cm
rain 24hr
cm
rain mn
cm
humidity
%
barometer
mb
20260505124601 10 191 0.0 8.0 0.00 0.00 0.00 95 1014.5
20260505124501 10 142 1.6 8.0 0.00 0.00 0.00 95 1014.4
20260505123056 10 109 0.0 11.3 0.00 0.00 0.00 95 1014.3
20260505121552 10 134 1.6 8.0 0.00 0.00 0.00 96 1014.2
20260505120105 9 112 1.6 8.0 0.00 0.00 0.00 95 1014.0
20260505114549 9 118 1.6 9.7 0.00 0.00 0.00 95 1013.9
20260505113054 9 233 1.6 9.7 0.00 0.00 0.00 95 1013.7
20260505111547 9 242 0.0 9.7 0.00 0.00 0.00 95 1013.6
20260505101537 10 147 0.0 11.3 0.00 0.00 0.00 94 1013.0
20260505100036 10 76 1.6 9.7 0.00 0.00 0.00 94 1013.0
20260505094531 10 219 1.6 9.7 0.00 0.00 0.00 94 1013.0
20260505093034 10 144 1.6 8.0 0.00 0.00 0.00 93 1012.8
20260505091528 10 235 0.0 9.7 0.00 0.00 0.00 93 1012.6
20260505090030 10 155 1.6 11.3 0.00 0.00 0.00 92 1012.5
20260505084529 10 37 0.0 12.9 0.00 0.00 0.00 91 1012.3
20260505083021 10 205 9.7 16.1 0.00 0.00 0.00 91 1012.2
20260505081515 11 143 6.4 17.7 0.00 0.00 0.00 90 1011.9
20260505080025 11 300 4.8 24.1 0.00 0.00 0.00 89 1011.9
20260505074510 11 135 4.8 19.3 0.00 0.00 0.00 91 1011.7
20260505073006 10 261 8.0 20.9 0.00 0.00 0.00 91 1011.3
20260505071504 10 245 8.0 22.5 0.00 0.00 0.00 91 1011.1
20260505070002 10 129 6.4 22.5 0.00 0.00 0.00 91 1011.1
20260505064559 11 119 8.0 19.3 0.00 0.00 0.00 90 1010.9
20260505063056 11 257 4.8 14.5 0.00 0.00 0.00 89 1010.9
20260505061612 11 160 4.8 12.9 0.00 0.00 0.00 87 1010.7
20260505060057 11 47 1.6 12.9 0.00 0.00 0.00 86 1010.6
20260505054555 12 172 1.6 11.3 0.00 0.00 0.00 84 1010.5
20260505053049 12 86 3.2 12.9 0.00 0.00 0.00 83 1010.4
20260505051549 12 210 1.6 9.7 0.00 0.00 0.00 81 1010.2
20260505041550 12 77 4.8 12.9 0.00 0.00 0.00 81 1009.8
20260505040058 12 153 3.2 11.3 0.00 0.00 0.00 81 1009.6
20260505034545 12 149 1.6 11.3 0.00 0.00 0.00 81 1009.5
20260505033043 13 205 1.6 9.7 0.00 0.00 0.00 81 1009.3
20260505031642 13 124 1.6 8.0 0.00 0.00 0.00 80 1009.2
20260505030044 14 229 1.6 11.3 0.00 0.00 0.00 79 1009.0
20260505024541 14 71 1.6 12.9 0.00 0.00 0.00 78 1009.0
20260505023040 14 120 4.8 14.5 0.00 0.00 0.00 77 1009.0
20260505021538 15 161 8.0 16.1 0.00 0.00 0.00 77 1009.2
20260505020041 15 127 4.8 14.5 0.00 0.00 0.00 77 1009.2
20260505014540 15 146 6.4 17.7 0.00 0.00 0.00 76 1009.4
20260505013032 15 146 4.8 12.9 0.00 0.00 0.00 75 1009.4
20260505011534 16 172 6.4 14.5 0.00 0.00 0.00 73 1009.4
20260505010032 17 160 4.8 12.9 0.00 0.00 0.00 71 1009.6
20260505004530 17 197 4.8 12.9 0.00 0.00 0.00 69 1009.6
20260505003028 18 158 4.8 11.3 0.00 0.00 0.00 63 1009.7
20260505001528 19 160 3.2 11.3 0.00 0.00 0.00 60 1009.7
20260505000041 20 192 3.2 11.3 0.00 0.00 0.00 60 1009.8
20260504234527 20 236 4.8 9.7 0.00 0.00 0.00 60 1009.9
20260504233025 20 150 4.8 11.3 0.00 0.00 0.00 59 1009.9
20260504231524 20 188 3.2 17.7 0.00 0.00 0.00 59 1010.1
20260504230024 19 229 3.2 12.9 0.00 0.00 0.00 63 1010.1
20260504224523 18 188 3.2 14.5 0.00 0.00 0.00 64 1010.2
20260504223023 19 184 4.8 12.9 0.00 0.00 0.00 64 1010.3
20260504221526 20 186 1.6 9.7 0.00 0.00 0.00 63 1010.3
20260504220039 20 256 4.8 14.5 0.00 0.00 0.00 61 1010.4
20260504214521 21 117 1.6 12.9 0.00 0.00 0.00 59 1010.5
20260504213021 22 136 3.2 11.3 0.00 0.00 0.00 57 1010.5
20260504211520 22 255 4.8 11.3 0.00 0.00 0.00 57 1010.5
20260504210019 22 236 0.0 4.8 0.00 0.00 0.00 59 1010.6
20260504204533 21 211 1.6 9.7 0.00 0.00 0.00 58 1010.7
20260504203019 21 162 3.2 9.7 0.00 0.00 0.00 60 1010.8
20260504201517 22 237 0.0 6.4 0.00 0.00 0.00 56 1011.0
20260504200014 21 262 1.6 8.0 0.00 0.00 0.00 58 1010.9
20260504194514 21 203 0.0 8.0 0.00 0.00 0.00 61 1010.9
20260504193012 20 193 4.8 11.3 0.00 0.00 0.00 60 1010.8
20260504191509 20 258 1.6 11.3 0.00 0.00 0.00 61 1010.9
20260504190012 20 260 1.6 11.3 0.00 0.00 0.00 62 1011.0
20260504184508 21 276 3.2 6.4 0.00 0.00 0.00 58 1011.0
20260504183006 20 245 1.6 4.8 0.00 0.00 0.00 59 1010.9
20260504181559 20 260 3.2 8.0 0.00 0.00 0.00 61 1011.0
20260504180137 19 276 3.2 9.7 0.00 0.00 0.00 64 1011.0
20260504174536 19 241 0.0 4.8 0.00 0.00 0.00 67 1011.1
20260504173032 18 128 0.0 4.8 0.00 0.00 0.00 67 1011.1
20260504171532 17 201 3.2 8.0 0.00 0.00 0.00 68 1011.1